TimeEST,TemperatureF,Dew PointF,Humidity,Sea Level PressureIn,VisibilityMPH,Wind Direction,Wind SpeedMPH,Gust SpeedMPH,PrecipitationIn,Events,Conditions,WindDirDegrees,DateUTC
12:54 AM,30.0,10.9,45,30.41,10.0,NNE,8.1,-,N/A,,Clear,20,2013-02-02 05:54:00
1:54 AM,28.9,10.9,47,30.41,10.0,NNE,5.8,-,N/A,,Clear,20,2013-02-02 06:54:00
2:54 AM,30.0,10.9,45,30.40,10.0,NNE,6.9,-,N/A,,Clear,20,2013-02-02 07:54:00
3:54 AM,28.9,10.0,45,30.40,10.0,North,5.8,-,N/A,,Clear,10,2013-02-02 08:54:00
4:54 AM,27.0,12.9,56,30.42,10.0,Calm,Calm,-,N/A,,Clear,0,2013-02-02 09:54:00
5:54 AM,25.0,14.0,63,30.42,10.0,NNE,3.5,-,N/A,,Clear,20,2013-02-02 10:54:00
6:54 AM,24.1,12.0,60,30.42,10.0,Calm,Calm,-,N/A,,Clear,0,2013-02-02 11:54:00
7:54 AM,28.9,17.1,61,30.43,10.0,Calm,Calm,-,N/A,,Clear,0,2013-02-02 12:54:00
8:54 AM,32.0,10.9,42,30.43,10.0,Calm,Calm,-,N/A,,Clear,0,2013-02-02 13:54:00
9:54 AM,35.1,7.0,31,30.43,10.0,Calm,Calm,-,N/A,,Clear,0,2013-02-02 14:54:00
10:54 AM,39.9,9.0,28,30.42,10.0,Calm,Calm,-,N/A,,Clear,0,2013-02-02 15:54:00
11:54 AM,43.0,8.1,24,30.37,10.0,West,4.6,-,N/A,,Clear,260,2013-02-02 16:54:00
12:54 PM,44.1,10.9,26,30.32,10.0,NE,4.6,-,N/A,,Clear,40,2013-02-02 17:54:00
1:54 PM,46.0,12.9,26,30.27,10.0,East,3.5,-,N/A,,Clear,90,2013-02-02 18:54:00
2:54 PM,50.0,8.1,18,30.24,10.0,Variable,3.5,-,N/A,,Clear,0,2013-02-02 19:54:00
3:54 PM,48.9,10.9,22,30.21,10.0,SSW,6.9,16.1,N/A,,Clear,200,2013-02-02 20:54:00
4:54 PM,46.9,19.9,34,30.19,10.0,North,-9999.0,-,N/A,,Clear,0,2013-02-02 21:54:00
5:54 PM,44.1,25.0,47,30.18,10.0,North,-9999.0,-,N/A,,Clear,0,2013-02-02 22:54:00
6:54 PM,41.0,28.0,60,30.17,10.0,North,-9999.0,-,N/A,,Scattered Clouds,0,2013-02-02 23:54:00
7:54 PM,37.9,28.0,68,30.14,10.0,North,-9999.0,-,N/A,,Clear,0,2013-02-03 00:54:00
8:54 PM,39.0,28.9,67,30.10,10.0,Calm,Calm,-,N/A,,Mostly Cloudy,0,2013-02-03 01:54:00
9:54 PM,37.0,30.0,76,30.08,10.0,Calm,Calm,-,N/A,,Mostly Cloudy,0,2013-02-03 02:54:00
10:54 PM,39.0,30.9,73,30.07,10.0,SW,3.5,-,N/A,,Overcast,220,2013-02-03 03:54:00
11:54 PM,41.0,33.1,73,30.06,10.0,Calm,Calm,-,N/A,,Overcast,0,2013-02-03 04:54:00